Regional Weather Roundup
Issued by NWS

Home | Current Version | Previous Version | Text Only | Print | Product List | Glossary Off
Versions: 1 2 3 4 5 6 7 8 9 10 11 12 13 14 15 16 17 18 19 20 21 22 23 24 25 26 27 28 29 30 31 32 33 34 35 36 37 38 39 40 41 42 43 44 45 46 47 48 49 50

000
ASUS45 KABQ 051410
RWRNM
WEATHER ROUNDUP FOR NEW MEXICO
NATIONAL WEATHER SERVICE ALBUQUERQUE NM
700 AM MST THU MAR 05 2015

NOTE: "FAIR" MEANS FEW OR NO CLOUDS BELOW 12,000 FEET AGL WITH NO
       SIGNIFICANT WEATHER OR OBSTRUCTIONS TO VISION.

      THIS PRODUCT IS RELEASED AS TWO VERSIONS.  ONE VERSION NEAR
      THE TOP OF THE HOUR CONTAINING PRELIMINARY DATA FROM ALBUQUERQUE
      AND OTHER STATIONS.  A FINAL VERSION WITH ADDITIONAL DATA IS
      ISSUED ABOUT 10 MINUTES AFTER THE HOUR.

NMZ501-503-504-510>518-051500-
NORTHWEST PLATEAU/NORTHCENTRAL MOUNTAINS

CITY           SKY/WX    TMP DP  RH WIND       PRES   REMARKS
FARMINGTON     CLEAR     18  11  74 NE6       30.36R WCI  10
LOS ALAMOS     PTCLDY    21   8  57 N10       30.32R WCI  10
SANTA FE       CLEAR     16  12  84 N7        30.33S WCI   6
TAOS           PTCLDY     7   0  72 N6        30.34S WCI  -3
ANGEL FIRE     FAIR     -21 -26  74 CALM      30.31R

$$
NMZ402-403-502-505>509-051500-
WESTCENTRAL MOUNTAINS/SOUTHWEST MOUNTAINS

CITY           SKY/WX    TMP DP  RH WIND       PRES   REMARKS
GALLUP         CLEAR     18  13  80 CALM      30.35R
GRANTS         CLEAR     17  12  80 N5        30.37R WCI  10
SILVER CITY    CLEAR     23  16  74 W6        30.32R WCI  16

$$
NMZ407-409-411-412-051500-
SOUTHERN DESERTS

CITY           SKY/WX    TMP DP  RH WIND       PRES   REMARKS
LORDSBURG      FAIR      32  23  69 SE13      30.33R WCI  22
DEMING         CLEAR     30  22  72 E14       30.36R WCI  19
LAS CRUCES     CLEAR     28  23  81 SW6       30.38R WCI  22
HOLLOMAN AFB   CLEAR     27  22  80 S14       30.38R WCI  16
ALAMOGORDO     PTCLDY    27  23  86 S8        30.40R WCI  18
T OR C         CLEAR     27  18  69 N6        30.36R WCI  20

$$
NMZ519>523-051500-
CENTRAL VALLEYS/CENTRAL HIGHLANDS

CITY           SKY/WX    TMP DP  RH WIND       PRES   REMARKS
ALBUQUERQUE    CLEAR     23  18  81 N7        30.37R WCI  15
DOUBLE EAGLE   CLEAR     19  14  79 NW8       30.35R WCI   9
MORIARTY ARPT  CLOUDY    18  16  92 N3        30.35S
CLINES CORNERS FOG       17  14  88 NW16      30.26S VSB 1/4 WCI   2
BELEN          FAIR      20  17  90 NW6       30.39R WCI  12
SOCORRO          N/A     22  18  87 NW5       30.39R WCI  15

$$
NMZ524>526-539-540-051500-
SOUTHCENTRAL MOUNTAINS

CITY           SKY/WX    TMP DP  RH WIND       PRES   REMARKS
RUIDOSO        FOG       14  10  85 CALM      30.34R VSB<1/4

$$
NMZ527>531-051500-
NORTHEAST HIGHLANDS/NORTHEAST PLAINS

CITY           SKY/WX    TMP DP  RH WIND       PRES   REMARKS
LAS VEGAS      FOG        9   7  92 SW6       30.28S VSB<1/4 WCI  -1
RATON          MOCLDY    -4  -7  87 NE7       30.29S WCI -18
CLAYTON        PTCLDY    12   6  77 SW12      30.31R WCI  -2

$$
NMZ532>537-051500-
EASTCENTRAL PLAINS

CITY           SKY/WX    TMP DP  RH WIND       PRES   REMARKS
TUCUMCARI      PTCLDY    18  15  88 VRB6      30.42S WCI  10
CANNON AFB     CLEAR     18  15  87 W6        30.43R WCI  10
CLOVIS AIRPORT CLEAR     16  12  86 W3        30.43R

$$
NMZ028-029-538-051500-
SOUTHEAST PLAINS

CITY           SKY/WX    TMP DP  RH WIND       PRES   REMARKS
ROSWELL        CLOUDY    27  21  78 E3        30.49R
ARTESIA        CLOUDY    27  23  86 CALM      30.52R
CARLSBAD       CLOUDY    29  19  66 CALM      30.51R
HOBBS          PTCLDY    25  18  74 N5        30.50R WCI  19


$$


USA.gov is the U.S. government's official web portal to all federal, state and local government web resources and services.